Hourly Weather Roundup
Issued by NWS Central Illinois

Home | Current Version | Previous Version | Text Only | Print | Product List | Glossary On
Versions: 1 2 3 4 5 6 7 8 9 10 11 12 13 14 15 16 17 18 19 20 21 22 23 24 25 26 27 28 29 30 31 32 33 34 35 36 37 38 39 40 41 42 43 44 45 46 47 48 49 50
000
NZUS43 KILX 280210
HWRILX

AREA WEATHER ROUNDUP
NATIONAL WEATHER SERVICE, LINCOLN IL
900 PM CDT MON APR 27 2015


CITY           SKY/WX    TMP DP  RH WIND       PRES   REMARKS
BLOOMINGTON    CLEAR     49  38  65 E15       30.12R
CHAMPAIGN      CLEAR     50  37  61 NE12      30.10R
DANVILLE       CLEAR     45  35  68 N9        30.07S
DECATUR        CLEAR     46  36  68 E8        30.09R
EFFINGHAM      CLEAR     52  34  51 NE3       30.10R
FLORA          CLEAR     53  37  53 NE13G20   30.08R
GALESBURG      CLEAR     54  37  52 N3        30.10R
JACKSONVILLE   CLEAR     55  38  51 NE6       30.09R
LACON          CLEAR     52  38  58 E9        30.10R
LAWRENCEVILLE  CLEAR     53  37  54 N13       30.08R
LITCHFIELD     CLEAR     54  37  53 NE8       30.07S
$$


CITY           SKY/WX    TMP DP  RH WIND       PRES   REMARKS
LINCOLN        CLEAR     52  37  56 CALM      30.08R
MACOMB         CLEAR     52  40  61 N5        30.11S
MATTOON        CLEAR     48  36  63 E5        30.08R
MT CARMEL AP   CLEAR     55  34  44 N12       30.06R
OLNEY-NOBLE AP CLEAR     52  37  58 N9        30.08R
PARIS          CLEAR     49  37  65 NE3       30.10R
PEORIA         CLEAR     57  34  41 NE6       30.09R
PONTIAC        FAIR      47  37  69 E9        30.13R
RANTOUL        CLEAR     50  37  59 NE9       30.11R
ROBINSON       CLEAR     51  36  56 NE9       30.09R
SPRINGFIELD    CLEAR     53  38  56 NE3       30.09R
TAYLORVILLE    FAIR      54  36  50 E8        30.09R
$$

...REGIONAL REPORTS...


CITY           SKY/WX    TMP DP  RH WIND       PRES   REMARKS
CHICAGO O`HARE PTCLDY    46  32  58 NE6       30.11S
KANKAKEE       CLEAR     44  35  69 NE8       30.12S
MOLINE         CLEAR     50  38  63 CALM      30.09R
MOUNT VERNON   CLEAR     54  36  50 NE8       30.06R
PITTSFIELD     CLEAR     57  37  45 NE5       30.09R
QUINCY         CLEAR     55  36  48 NE6       30.09R
ROCKFORD       PTCLDY    52  36  54 SE6       30.13R
$$


CITY           SKY/WX    TMP DP  RH WIND       PRES   REMARKS
BURLINGTON     CLEAR     58  35  42 NE5       30.10R
CEDAR RAPIDS   CLEAR     56  35  45 NE8       30.10R
DES MOINES     PTCLDY    62  30  29 E3        30.12R
KIRKSVILLE     CLEAR     54  39  57 NE6       30.10R
OTTUMWA        CLEAR     55  36  48 NE3       30.10R
ST LOUIS       PTCLDY    59  36  42 NE7       30.06R
$$


CITY           SKY/WX    TMP DP  RH WIND       PRES   REMARKS
TERRE HAUTE    CLEAR     47  36  65 N6        30.08R
EVANSVILLE     CLEAR     56  38  50 N10       30.04R
INDIANAPOLIS   PTCLDY    48  35  60 N9        30.05S
LAFAYETTE      CLEAR     45  34  65 N7        30.09R
MADISON        CLEAR     54  33  45 E3        30.08R
MILWAUKEE      CLEAR     42  30  62 CALM      30.14R
$$




USA.gov is the U.S. government's official web portal to all federal, state and local government web resources and services.